Location: Unspecified
(0.0000°N, 0.0000°E)
Time: 02:51:06
(UTC+00:00)

Vanguard 1 Rocket - Pass Details

Date: 16 December 2017
Orbit: 656 x 4222 km, 34.3° (Epoch: 20 January)

Event Time Altitude Azimuth Distance (km) Brightness Sun altitude
Rises 21:40:27 0° 319° (NW) 6,721 11.9 -49.7°
Reaches altitude 10° 21:44:48 10° 326° (NNW) 6,117 11.5 -50.5°
Enters shadow 21:50:14 23° 337° (NNW) 5,511 11.1 -51.6°
Exits shadow 22:30:05 - 103° (ESE) 7,124 11.7 -58.7°
Sets 22:34:38 0° 108° (ESE) 7,744 12.0 -59.4°
